When you browse on this site, cookies collect data to enhance your experience and personalize the content and advertising you see.
Visit our Privacy Policy to learn more. By continuing to use the site, you agree to this use of cookies and data.
  • în România
  • Lista ţărilor
  • Pe 7 zile
  • Temperatura apei
  • Hartă satelitară
  • Meteo pe hartă
  • Widget-uri
  • user-avatar
    Intrare

    Meteo pe oră la Arrecife

    Astăzi, 16 Februarie, Sâmbătă

    Timp Temperatura Precipitaţii Vânt Presiune Umiditate
    00:00 +7°C° 0 mm 2 m/s 681 mmHg 71%
    01:00 +7°C° 0 mm 2 m/s 680 mmHg 69%
    02:00 +6°C° 0 mm 2 m/s 680 mmHg 67%
    03:00 +6°C° 0 mm 2 m/s 680 mmHg 64%
    04:00 +6°C° 0 mm 2 m/s 680 mmHg 63%
    05:00 +5°C° 0 mm 2 m/s 680 mmHg 61%
    06:00 +5°C° 0 mm 2 m/s 680 mmHg 60%
    07:00 +5°C° 0 mm 3 m/s 680 mmHg 55%
    08:00 +8°C° 0 mm 3 m/s 681 mmHg 51%
    09:00 +9°C° 0 mm 3 m/s 681 mmHg 47%
    10:00 +11°C° 0 mm 3 m/s 682 mmHg 40%
    11:00 +12°C° 0 mm 4 m/s 682 mmHg 34%
    12:00 +14°C° 0 mm 4 m/s 682 mmHg 28%
    13:00 +14°C° 0 mm 4 m/s 682 mmHg 27%
    14:00 +15°C° 0 mm 5 m/s 681 mmHg 26%
    15:00 +15°C° 0 mm 5 m/s 681 mmHg 25%
    16:00 +13°C° 0 mm 4 m/s 681 mmHg 31%
    17:00 +11°C° 0 mm 4 m/s 680 mmHg 37%
    18:00 +10°C° 0 mm 3 m/s 680 mmHg 43%
    19:00 +9°C° 0 mm 3 m/s 680 mmHg 49%
    20:00 +8°C° 0 mm 2 m/s 680 mmHg 56%
    21:00 +7°C° 0 mm 2 m/s 681 mmHg 62%
    22:00 +6°C° 0 mm 2 m/s 680 mmHg 62%
    23:00 +6°C° 0 mm 2 m/s 680 mmHg 63%

    Mâine, 17 Februarie, Duminică

    Timp Temperatura Precipitaţii Vânt Presiune Umiditate
    00:00 +7°C° 0 mm 1 m/s 680 mmHg 64%
    01:00 +6°C° 0 mm 1 m/s 680 mmHg 61%
    02:00 +6°C° 0 mm 1 m/s 680 mmHg 58%
    03:00 +6°C° 0 mm 1 m/s 680 mmHg 55%
    04:00 +6°C° 0 mm 1 m/s 679 mmHg 53%
    05:00 +5°C° 0 mm 1 m/s 679 mmHg 51%
    06:00 +5°C° 0 mm 1 m/s 679 mmHg 49%
    07:00 +7°C° 0 mm 1 m/s 680 mmHg 44%
    08:00 +8°C° 0 mm 1 m/s 680 mmHg 39%
    09:00 +10°C° 0 mm 1 m/s 681 mmHg 34%
    10:00 +12°C° 0 mm 1 m/s 681 mmHg 31%
    11:00 +13°C° 0 mm 1 m/s 681 mmHg 28%
    12:00 +15°C° 0 mm 1 m/s 681 mmHg 24%
    13:00 +15°C° 0 mm 1 m/s 681 mmHg 24%
    14:00 +15°C° 0 mm 1 m/s 680 mmHg 24%
    15:00 +16°C° 0 mm 1 m/s 680 mmHg 24%
    16:00 +14°C° 0 mm 1 m/s 679 mmHg 30%
    17:00 +12°C° 0 mm 1 m/s 679 mmHg 36%
    18:00 +11°C° 0 mm 1 m/s 678 mmHg 41%
    19:00 +10°C° 0 mm 1 m/s 678 mmHg 45%
    20:00 +9°C° 0 mm 1 m/s 678 mmHg 50%
    21:00 +8°C° 0 mm 1 m/s 678 mmHg 54%
    22:00 +8°C° 0 mm 1 m/s 678 mmHg 58%
    23:00 +8°C° 0 mm 1 m/s 678 mmHg 62%

    Poimâine, 18 Februarie, Luni

    Timp Temperatura Precipitaţii Vânt Presiune Umiditate
    00:00 +6°C° 0 mm 2 m/s 677 mmHg 66%
    01:00 +6°C° 0 mm 2 m/s 677 mmHg 66%
    02:00 +5°C° 0 mm 2 m/s 676 mmHg 66%
    03:00 +5°C° 0 mm 2 m/s 676 mmHg 66%
    04:00 +5°C° 0 mm 2 m/s 676 mmHg 62%
    05:00 +5°C° 0 mm 2 m/s 675 mmHg 58%
    06:00 +5°C° 0 mm 2 m/s 675 mmHg 54%
    07:00 +6°C° 0 mm 2 m/s 676 mmHg 49%
    08:00 +7°C° 0 mm 2 m/s 676 mmHg 44%
    09:00 +9°C° 0 mm 2 m/s 677 mmHg 39%
    10:00 +10°C° 0 mm 2 m/s 677 mmHg 36%
    11:00 +11°C° 0 mm 3 m/s 677 mmHg 33%
    12:00 +12°C° 0 mm 3 m/s 677 mmHg 29%
    13:00 +12°C° 0 mm 3 m/s 676 mmHg 30%
    14:00 +12°C° 0 mm 3 m/s 676 mmHg 31%
    15:00 +12°C° 0 mm 3 m/s 675 mmHg 33%
    16:00 +11°C° 0.1 mm 3 m/s 675 mmHg 38%
    17:00 +10°C° 0.1 mm 2 m/s 675 mmHg 44%
    18:00 +9°C° 0.1 mm 2 m/s 675 mmHg 49%
    19:00 +8°C° 0 mm 2 m/s 675 mmHg 53%
    20:00 +8°C° 0 mm 2 m/s 676 mmHg 57%
    21:00 +7°C° 0 mm 2 m/s 676 mmHg 61%
    22:00 +8°C° 0 mm 1 m/s 676 mmHg 64%
    23:00 +7°C° 0 mm 1 m/s 676 mmHg 67%

    19 Februarie, Marţi

    Timp Temperatura Precipitaţii Vânt Presiune Umiditate
    00:00 +7°C° 0 mm 1 m/s 676 mmHg 69%
    01:00 +6°C° 0 mm 1 m/s 676 mmHg 72%
    02:00 +6°C° 0 mm 1 m/s 676 mmHg 74%
    03:00 +5°C° 0 mm 1 m/s 676 mmHg 77%
    04:00 +5°C° 0 mm 1 m/s 676 mmHg 77%
    05:00 +4°C° 0 mm 1 m/s 676 mmHg 77%
    06:00 +4°C° 0 mm 1 m/s 676 mmHg 77%
    07:00 +6°C° 0 mm 1 m/s 677 mmHg 69%
    08:00 +7°C° 0 mm 1 m/s 677 mmHg 61%
    09:00 +8°C° 0 mm 1 m/s 678 mmHg 52%
    10:00 +10°C° 0 mm 1 m/s 678 mmHg 46%
    11:00 +11°C° 0 mm 1 m/s 679 mmHg 41%
    12:00 +12°C° 0 mm 2 m/s 679 mmHg 35%
    13:00 +12°C° 0 mm 2 m/s 679 mmHg 34%
    14:00 +13°C° 0 mm 2 m/s 678 mmHg 33%
    15:00 +13°C° 0 mm 2 m/s 678 mmHg 33%
    16:00 +12°C° 0 mm 2 m/s 678 mmHg 36%
    17:00 +10°C° 0 mm 2 m/s 678 mmHg 39%
    18:00 +10°C° 0 mm 1 m/s 678 mmHg 42%
    19:00 +9°C° 0 mm 1 m/s 678 mmHg 44%
    20:00 +8°C° 0 mm 1 m/s 678 mmHg 46%
    21:00 +7°C° 0 mm 1 m/s 678 mmHg 48%
    22:00 +7°C° 0 mm 1 m/s 678 mmHg 52%
    23:00 +6°C° 0 mm 1 m/s 678 mmHg 55%

    20 Februarie, Miercuri

    Timp Temperatura Precipitaţii Vânt Presiune Umiditate
    00:00 +6°C° 0 mm 1 m/s 678 mmHg 59%
    01:00 +5°C° 0 mm 1 m/s 678 mmHg 63%
    02:00 +5°C° 0 mm 1 m/s 678 mmHg 66%
    03:00 +4°C° 0 mm 1 m/s 678 mmHg 70%
    04:00 +4°C° 0 mm 1 m/s 678 mmHg 72%
    05:00 +4°C° 0 mm 1 m/s 678 mmHg 75%
    06:00 +3°C° 0 mm 1 m/s 678 mmHg 77%
    07:00 +5°C° 0 mm 1 m/s 679 mmHg 69%
    08:00 +7°C° 0 mm 1 m/s 679 mmHg 61%
    09:00 +9°C° 0 mm 1 m/s 680 mmHg 53%
    10:00 +10°C° 0 mm 1 m/s 681 mmHg 47%
    11:00 +11°C° 0 mm 1 m/s 681 mmHg 40%
    12:00 +13°C° 0 mm 1 m/s 681 mmHg 34%
    13:00 +13°C° 0 mm 1 m/s 681 mmHg 33%
    14:00 +13°C° 0 mm 1 m/s 681 mmHg 31%
    15:00 +14°C° 0 mm 1 m/s 681 mmHg 30%
    16:00 +12°C° 0 mm 1 m/s 680 mmHg 33%
    17:00 +11°C° 0 mm 1 m/s 680 mmHg 37%
    18:00 +9°C° 0 mm 2 m/s 680 mmHg 41%
    19:00 +8°C° 0 mm 2 m/s 680 mmHg 47%
    20:00 +7°C° 0 mm 2 m/s 681 mmHg 53%
    21:00 +6°C° 0 mm 2 m/s 681 mmHg 59%
    22:00 +6°C° 0 mm 2 m/s 681 mmHg 66%
    23:00 +6°C° 0 mm 1 m/s 681 mmHg 73%

    21 Februarie, Joi

    Timp Temperatura Precipitaţii Vânt Presiune Umiditate
    00:00 +6°C° 0 mm 1 m/s 681 mmHg 79%
    01:00 +5°C° 0 mm 1 m/s 680 mmHg 82%
    02:00 +5°C° 0 mm 1 m/s 680 mmHg 85%
    03:00 +5°C° 0 mm 1 m/s 680 mmHg 88%
    04:00 +4°C° 0 mm 1 m/s 680 mmHg 87%
    05:00 +4°C° 0 mm 1 m/s 680 mmHg 87%
    06:00 +3°C° 0 mm 2 m/s 680 mmHg 87%
    07:00 +4°C° 0 mm 2 m/s 680 mmHg 77%
    08:00 +6°C° 0 mm 2 m/s 681 mmHg 67%
    09:00 +7°C° 0 mm 2 m/s 682 mmHg 58%
    10:00 +9°C° 0 mm 2 m/s 682 mmHg 50%
    11:00 +10°C° 0 mm 3 m/s 682 mmHg 42%
    12:00 +12°C° 0 mm 3 m/s 682 mmHg 33%
    13:00 +13°C° 0 mm 2 m/s 682 mmHg 33%
    14:00 +14°C° 0 mm 2 m/s 682 mmHg 32%
    15:00 +14°C° 0 mm 2 m/s 682 mmHg 32%
    16:00 +13°C° 0 mm 2 m/s 682 mmHg 39%
    17:00 +10°C° 0 mm 2 m/s 682 mmHg 46%
    18:00 +9°C° 0 mm 2 m/s 681 mmHg 53%
    19:00 +8°C° 0 mm 2 m/s 682 mmHg 59%
    20:00 +7°C° 0 mm 2 m/s 682 mmHg 65%
    21:00 +7°C° 0 mm 2 m/s 682 mmHg 71%
    22:00 +6°C° 0 mm 2 m/s 682 mmHg 75%
    23:00 +6°C° 0 mm 2 m/s 682 mmHg 78%
    Arată mai mult